Weather History for KDTW - October, 2013

Change the Weather History Date:

Sunday, October 6, 2013

  Actual Average Record
Temperature  
Mean Temperature 65 °F 56 °F  
Max Temperature 73 °F 65 °F 91 °F (1963)
Min Temperature 57 °F 46 °F 30 °F (1935)
Degree Days  
Heating Degree Days 0 10  
Month to date heating degree days 3 53  
Since 1 July heating degree days 113 167  
Cooling Degree Days 0 1  
Month to date cooling degree days 20 6  
Year to date cooling degree days 891 801  
Growing Degree Days 15 (Base 50)    
Moisture  
Dew Point 64 °F    
Average Humidity 88    
Maximum Humidity 97    
Minimum Humidity 79    
Precipitation  
Precipitation 0.46 in 0.09 in 2.20 in (1959)
Month to date precipitation 0.95 0.53  
Year to date precipitation 33.13 26.23  
Snow  
Snow 0.00 in 0.00 in T in (1991)
Month to date snowfall 0.0 0.0  
Since 1 July snowfall 0.0 0.0  
Since 1 September snowfall 0.0 0.0  
Snow Depth 0.00 in    
Sea Level Pressure  
Sea Level Pressure 29.76 in    
Wind  
Wind Speed 9 mph (South)    
Max Wind Speed 18 mph    
Max Gust Speed 23 mph    
Visibility 8 miles    
Events Rain    
T = Trace of Precipitation, MM = Missing Value Source: NWS Daily Summary

Daily Weather History Graph

Daily Weather History Graph

Search for Another Location

Airport or City:

Trip Planner

Search our weather history database for the weather conditions in past years. The results will help you decide how hot, cold, wet, or windy it might be!

Date:

Astronomy

Oct. 06, 2013 Rise Set
Actual Time 7:36 AM EDT 7:05 PM EDT
Civil Twilight 7:08 AM EDT 7:33 PM EDT
Nautical Twilight 6:35 AM EDT 8:06 PM EDT
Astronomical Twilight 6:02 AM EDT 8:38 PM EDT
Moon 9:21 AM EDT (10/6) 8:01 PM EDT (10/6)
Length of Visible Light 12h 25m
Length of Day
11h 29m
Waxing Crescent, 3% of the Moon is Illuminated
Oct 6
Waxing Crescent
Oct 11
First Quarter
Oct 18
Full
Oct 26
Last Quarter
Nov 3
New

Hourly Weather History & Observations

Time (EDT) Temp. Dew Point Humidity Pressure Visibility Wind Dir Wind Speed Gust Speed Precip Events Conditions
12:31 AM 69.8 °F 68.0 °F 94% 29.88 in 7.0 mi SE 4.6 mph - 0.00 in   Overcast
12:53 AM 69.1 °F 66.9 °F 93% 29.86 in 7.0 mi SE 5.8 mph - 0.00 in   Overcast
1:00 AM 69.8 °F 68.0 °F 94% 29.87 in 7.0 mi SE 4.6 mph - N/A   Overcast
1:34 AM 69.8 °F 68.0 °F 94% 29.86 in 6.0 mi SSE 5.8 mph - N/A   Mostly Cloudy
1:53 AM 69.1 °F 68.0 °F 96% 29.86 in 7.0 mi SSE 8.1 mph - N/A   Overcast
2:53 AM 69.1 °F 66.9 °F 93% 29.85 in 8.0 mi South 10.4 mph - N/A   Overcast
3:53 AM 69.1 °F 66.9 °F 93% 29.84 in 10.0 mi South 8.1 mph - N/A   Overcast
4:53 AM 69.1 °F 66.0 °F 90% 29.83 in 10.0 mi South 10.4 mph - N/A   Overcast
5:53 AM 68.0 °F 66.0 °F 93% 29.83 in 10.0 mi South 8.1 mph - 0.00 in Rain Light Rain
6:53 AM 68.0 °F 64.9 °F 90% 29.81 in 10.0 mi SE 9.2 mph - 0.04 in Rain Light Rain
7:35 AM 68.0 °F 64.4 °F 88% 29.81 in 10.0 mi South 6.9 mph - 0.00 in   Mostly Cloudy
7:53 AM 68.0 °F 66.0 °F 93% 29.81 in 10.0 mi South 5.8 mph - 0.00 in   Overcast
8:50 AM 68.0 °F 64.4 °F 88% 29.81 in 9.0 mi SSE 6.9 mph - 0.00 in Rain Light Rain
8:53 AM 68.0 °F 64.9 °F 90% 29.81 in 9.0 mi South 8.1 mph - 0.00 in Rain Light Rain
9:53 AM 68.0 °F 64.9 °F 90% 29.78 in 9.0 mi South 10.4 mph - 0.01 in Rain Light Rain
10:17 AM 69.8 °F 66.2 °F 88% 29.78 in 9.0 mi South 6.9 mph - 0.00 in Rain Light Rain
10:35 AM 69.8 °F 64.4 °F 83% 29.78 in 10.0 mi South 8.1 mph - 0.00 in   Overcast
10:53 AM 69.1 °F 64.9 °F 87% 29.77 in 10.0 mi South 8.1 mph - 0.00 in   Overcast
11:17 AM 69.8 °F 66.2 °F 88% 29.78 in 10.0 mi SSE 8.1 mph - 0.00 in Rain Light Rain
11:44 AM 69.8 °F 66.2 °F 88% 29.78 in 10.0 mi SSE 13.8 mph 19.6 mph 0.00 in   Overcast
11:53 AM 70.0 °F 66.0 °F 87% 29.78 in 10.0 mi South 13.8 mph - 0.00 in   Overcast
12:13 PM 69.8 °F 66.2 °F 88% 29.78 in 6.0 mi South 9.2 mph - 0.01 in Rain Light Rain
12:44 PM 69.8 °F 66.2 °F 88% 29.77 in 8.0 mi South 9.2 mph - 0.03 in Rain Light Rain
12:51 PM 69.8 °F 66.2 °F 88% 29.77 in 8.0 mi South 12.7 mph - 0.03 in Rain Light Rain
12:53 PM 70.0 °F 66.0 °F 87% 29.76 in 8.0 mi South 11.5 mph - 0.03 in Rain Light Rain
1:53 PM 70.0 °F 64.9 °F 84% 29.73 in 8.0 mi South 9.2 mph - 0.01 in   Overcast
2:08 PM 69.8 °F 64.4 °F 83% 29.73 in 8.0 mi South 9.2 mph - N/A   Overcast
2:53 PM 70.0 °F 64.0 °F 81% 29.70 in 8.0 mi SSE 9.2 mph - N/A   Overcast
3:53 PM 72.0 °F 64.0 °F 76% 29.68 in 10.0 mi SSE 9.2 mph - N/A   Overcast
4:28 PM 73.4 °F 64.4 °F 73% 29.68 in 10.0 mi SSE 12.7 mph - 0.00 in Rain Light Rain
4:53 PM 72.0 °F 64.9 °F 78% 29.66 in 10.0 mi SSE 6.9 mph - 0.00 in Rain Light Rain
5:38 PM 69.8 °F 66.2 °F 88% 29.66 in 9.0 mi SSE 11.5 mph - 0.01 in Rain Light Rain
5:53 PM 66.9 °F 64.0 °F 90% 29.67 in 6.0 mi WSW 13.8 mph 23.0 mph 0.06 in Rain Rain
6:02 PM 64.4 °F 60.8 °F 88% 29.70 in 3.0 mi SW 13.8 mph - 0.03 in Rain Heavy Rain
6:06 PM 64.4 °F 60.8 °F 88% 29.69 in 1.5 mi WSW 11.5 mph - 0.09 in Rain Heavy Rain
6:16 PM 62.6 °F 60.8 °F 94% 29.69 in 1.5 mi West 10.4 mph - 0.26 in Rain Rain
6:21 PM 62.6 °F 60.8 °F 94% 29.69 in 3.0 mi West 9.2 mph - 0.29 in Rain Light Rain
6:53 PM 62.1 °F 60.1 °F 93% 29.69 in 10.0 mi West 4.6 mph - 0.30 in   Overcast
7:11 PM 62.6 °F 59.0 °F 88% 29.69 in 10.0 mi West 4.6 mph - 0.00 in Rain Light Rain
7:53 PM 62.1 °F 57.9 °F 86% 29.71 in 10.0 mi SSW 11.5 mph - 0.00 in   Overcast
8:53 PM 60.1 °F 57.0 °F 90% 29.72 in 10.0 mi WSW 10.4 mph - 0.01 in Rain Light Rain
9:53 PM 59.0 °F 55.9 °F 90% 29.73 in 10.0 mi WSW 10.4 mph - 0.00 in   Mostly Cloudy
10:53 PM 59.0 °F 55.9 °F 90% 29.75 in 10.0 mi SW 8.1 mph - 0.00 in   Overcast
11:46 PM 57.2 °F 55.4 °F 94% 29.73 in 10.0 mi SSW 9.2 mph - N/A   Mostly Cloudy
11:53 PM 57.9 °F 55.0 °F 90% 29.73 in 10.0 mi SSW 10.4 mph - N/A   Mostly Cloudy